Location: Copper Breaks State Park
(34.1132°N, 99.7492°W)
Time: 13:35:29
(UTC-05:00)

SL-16 R/B - Visible Passes

Search period start: 24 July 2016 00:00
Search period end: 03 August 2016 00:00
Orbit: 984 x 1007 km, 99.3° (Epoch: 23 July)

Date Brightness Start Highest point End Pass type
(mag) Time Alt. Az. Time Alt. Az. Time Alt. Az.
24 Jul 2.6 04:21:04 24° SSE 04:24:57 77° ENE 04:31:07 10° N visible
24 Jul 4.2 06:06:28 10° WSW 06:09:04 13° W 06:11:41 10° WNW visible
25 Jul 4.7 03:08:33 10° ESE 03:12:42 19° ENE 03:16:51 10° NNE visible
25 Jul 2.5 04:52:26 27° S 04:55:46 59° WSW 05:01:52 10° NNW visible
26 Jul 3.9 03:38:42 14° SE 03:43:12 34° ENE 03:48:39 10° N visible
26 Jul 3.2 05:23:47 21° SW 05:26:44 32° W 05:32:09 10° NW visible
27 Jul 2.9 04:10:04 24° SE 04:13:51 62° ENE 04:19:56 10° N visible
27 Jul 3.9 05:55:10 13° WSW 05:57:49 17° W 06:01:35 10° NW visible
28 Jul 5.0 02:58:19 10° E 03:01:43 15° ENE 03:05:06 10° NNE visible
28 Jul 2.4 04:41:26 30° S 04:44:37 73° WSW 04:50:48 10° NNW visible
29 Jul 4.2 03:27:43 13° ESE 03:32:09 28° ENE 03:37:15 10° N visible
29 Jul 3.0 05:12:48 26° SSW 05:15:32 39° W 05:21:16 10° NNW visible
30 Jul 3.2 03:59:05 23° SE 04:02:46 50° ENE 04:08:40 10° N visible
30 Jul 3.7 05:44:11 17° SW 05:46:34 21° W 05:51:05 10° NW visible
31 Jul 5.1 02:48:28 10° E 02:50:46 12° ENE 02:53:03 10° NE visible
31 Jul 2.4 04:30:27 33° SSE 04:33:29 89° WSW 04:39:41 10° NNW visible
01 Aug 4.5 03:16:44 11° ESE 03:21:09 23° ENE 03:25:47 10° NNE visible
01 Aug 2.7 05:01:50 32° SSW 05:04:21 49° W 05:10:19 10° NNW visible
02 Aug 3.6 03:48:07 21° SE 03:51:41 41° ENE 03:57:23 10° N visible
02 Aug 3.4 05:33:12 22° SW 05:35:22 26° W 05:40:24 10° NW visible
